Flag for Germany Weather past 2 weeks in Greifswald, Mecklenburg-Western Pomerania, Germany

Now
52 °F

Sunny.


Feels Like: 49 °F
Forecast: 47 / 62 °F
Wind: 9 mph from Northeast

Location: Greifswald


UV Index: 3 (Moderate)

Visibility: 8 mi


Pressure: 30.03 "Hg

Humidity: 83%

Dew point: 47 °F

Location of GreifswaldLocation

Historic Weather in Greifswald

°F

Greifswald temperature yesterday

Maximum temperature yesterday: 54 °F (at 3:00 PM)
Minimum temperature yesterday: 39 °F (at 1:00 AM)
Average temperature yesterday: 47 °F

Past Weeks' High & Low Weather Summary

 TemperatureHumidityPressure
High65 °F (Apr 7, 4:00 PM)100% (Apr 12, 3:00 AM)30.45 "Hg (Apr 12, 3:00 AM)
Low33 °F (Apr 16, 6:00 AM)34% (Apr 17, 1:00 PM)29.57 "Hg (Apr 14, 9:00 AM)
Average48 °F79%30.00 "Hg
* Reported Apr 5 12:00 Noon — Apr 20 11:00 AM, Greifswald, Weather by CustomWeather, © 2014

Note: Actual official high and low records may vary slightly from our data, if they occured in-between our weather recording intervals... More about our weather records

Advertising

Historic Weather Conditions — Data for Previous 24 hours

 ConditionsComfort  
Time TempWeatherWind HumidityBarometerVisibility
11:00 AM
Apr 20
52 °FSunny.9 mph83%30.03 "Hg7 mi
10:00 AM51 °FSunny.9 mph86%30.03 "Hg6 mi
9:00 AM50 °FSunny.7 mph89%30.04 "Hg5 mi
8:00 AM48 °FFog.7 mph91%30.04 "Hg4 mi
7:00 AM47 °FFog.7 mph93%30.03 "Hg4 mi
6:00 AM47 °FFog.6 mph93%30.04 "Hg4 mi
4:00 AM47 °FClear.6 mph93%30.05 "Hg5 mi
3:00 AM47 °FClear.6 mph94%30.06 "Hg5 mi
2:00 AM47 °FFog.6 mph94%30.08 "Hg4 mi
1:00 AM46 °FFog.7 mph93%30.09 "Hg4 mi
12:00 AM47 °FClear.8 mph93%30.11 "Hg5 mi
11:00 PM
Apr 19
47 °FClear.7 mph92%30.11 "Hg5 mi
10:00 PM46 °FClear.7 mph93%30.11 "Hg5 mi
9:00 PM47 °FClear.7 mph90%30.12 "Hg6 mi
8:00 PM48 °FSunny.8 mph85%30.12 "Hg7 mi
7:00 PM50 °FSunny.9 mph79%30.13 "Hg11 mi
6:00 PM52 °FSunny.8 mph75%30.13 "Hg9 mi
4:00 PM53 °FSunny.9 mph73%30.16 "Hg9 mi
3:00 PM54 °FPassing clouds.9 mph70%30.17 "Hg12 mi
2:00 PM53 °FSunny.8 mph75%30.18 "Hg9 mi
1:00 PM52 °FSunny.7 mph80%30.19 "Hg9 mi
12:00 PM52 °FSunny.6 mph79%30.20 "Hg6 mi
11:00 AM51 °FSunny.5 mph84%30.20 "Hg6 mi
Weather by CustomWeather, © 2014

See weather overview